Regional Weather Roundup
Issued by NWS

Home | Current Version | Previous Version | Text Only | Print | Product List | Glossary Off
Versions: 1 2 3 4 5 6 7 8 9 10 11 12 13 14 15 16 17 18 19 20 21 22 23 24 25 26 27 28 29 30 31 32 33 34 35 36 37 38 39 40 41 42 43 44 45 46 47 48 49 50

000
ASUS43 KOAX 221302
RWRNE

WEATHER ROUNDUP FOR NEBRASKA
NATIONAL WEATHER SERVICE OMAHA NE
800 AM CDT MON MAY 22 2017

NOTES: SATELLITE DATA IS BEING USED TO AUGMENT CLOUD COVER ABOVE
       12000 FEET.
       "FAIR" INDICATES FEW OR NO CLOUDS BELOW 12,000 FEET WITH NO
       SIGNIFICANT WEATHER AND/OR OBSTRUCTIONS TO VISIBILITY.

  * THESE STATIONS DO NOT REPORT WEATHER SUCH AS RAIN...SNOW OR FOG.

NEZ001>004-019>022-054>056-221400-
NEBRASKA PANHANDLE

CITY           SKY/WX    TMP DP  RH WIND       PRES   REMARKS
SCOTTSBLUFF    SUNNY     44  32  62 NW7       30.11S
ALLIANCE       SUNNY     42  39  89 W8        30.06S
CHADRON        CLOUDY    43  39  86 W7        30.07R
GORDON         CLOUDY    45  40  82 W7        30.02F
SIDNEY         SUNNY     44  39  82 W10       30.12S
$$

NEZ057>060-069>072-079>082-221400-
SOUTHWEST NEBRASKA

CITY           SKY/WX    TMP DP  RH WIND       PRES   REMARKS
NORTH PLATTE   SUNNY     49  46  90 W8        30.07S
IMPERIAL       CLOUDY    49  45  86 W9        30.10S
LEXINGTON      SUNNY     53  47  81 NW8       30.05F
MCCOOK         PTSUNNY   52  48  86 NW10      30.07S
OGALLALA       SUNNY     45  42  88 W12       30.09F
$$

NEZ005>010-023>029-035>040-094-221400-
NORTH CENTRAL NEBRASKA

CITY           SKY/WX    TMP DP  RH WIND       PRES   REMARKS
VALENTINE      SUNNY     50  41  71 W10       30.00S
AINSWORTH      SUNNY     50  44  79 W12       29.99S
BROKEN BOW     SUNNY     50  43  77 W6        30.03S
O`NEILL        SUNNY     53  43  70 W7        29.97F
ORD            SUNNY     50  44  80 W6        30.00F
THEDFORD       SUNNY     50  44  80 W8        30.03S
$$

NEZ041-046>049-061>064-073>077-083>087-221400-
SOUTH CENTRAL NEBRASKA

CITY           SKY/WX    TMP DP  RH WIND       PRES   REMARKS
GRAND ISLAND   PTSUNNY   54  48  80 W10       30.02F
AURORA         CLOUDY    56  49  78 W10       30.01S
HASTINGS       CLOUDY    54  47  77 W12       30.03F
HEBRON         LGT RAIN  57  54  88 W6        30.03R
HOLDREGE       MOSUNNY   55  47  74 W6        30.05S
KEARNEY *      MOSUNNY   55  45  67 W8        30.04S
YORK           PTSUNNY   54  50  87 W9        30.01S
$$

NEZ011>018-030>034-042>045-221400-
NORTHEAST NEBRASKA

CITY           SKY/WX    TMP DP  RH WIND       PRES   REMARKS
NORFOLK        SUNNY     54  44  69 W12       29.95F
ALBION         SUNNY     54  45  72 W7        29.99S
BLAIR          CLOUDY    56  48  76 SW9       29.96S
FREMONT        PTSUNNY   56  48  74 W12       29.96F
TEKAMAH        PTSUNNY   55  47  74 SW7       29.94F
WAYNE          SUNNY     56  48  75 W12       29.94F
$$

NEZ050>053-065>068-078-088>093-221400-
SOUTHEAST NEBRASKA

CITY           SKY/WX    TMP DP  RH WIND       PRES   REMARKS
LINCOLN        CLOUDY    58  50  75 W6        30.00S
OMAHA EPPLEY   CLOUDY    60  49  66 SW5       29.96F
BEATRICE       CLOUDY    59  55  85 SW8       30.01F
FALLS CITY     CLOUDY    56  51  84 SW7       30.02S
NEBRASKA CITY  RAIN      57  51  79 SW9       29.99F
PLATTSMOUTH    PTSUNNY   58  50  73 SW8       29.98S
$$

NEZ044-045-051>053-067-221400-
OMAHA AREA

CITY           SKY/WX    TMP DP  RH WIND       PRES   REMARKS
OMAHA EPPLEY   CLOUDY    60  49  66 SW5       29.96F
BLAIR          CLOUDY    56  48  76 SW9       29.96S
FREMONT        PTSUNNY   56  48  74 W12       29.96F
MILLARD        MOSUNNY   60  51  71 W5        29.97S
PLATTSMOUTH    PTSUNNY   58  50  73 SW8       29.98S
WAHOO          FAIR      56  48  72 W6        29.97S
$$




USA.gov is the U.S. government's official web portal to all federal, state and local government web resources and services.